Flag for United Kingdom Weather past 2 weeks in Portsmouth, England, United Kingdom

Now
39 °F

Clear.


Feels Like: 39 °F
Forecast: 44 / 50 °F
Wind: 2 mph from North

Location: Southampton / Weather Centre

Current Time: Dec 20, 2014 at 12:36:15 AM

Latest Report: Dec 19, 2014 at 10:50 PM


Visibility: 10 mi

Pressure: 30.24 "Hg

Humidity: 87%

Dew point: 36 °F

Location of PortsmouthLocation

Historic Weather in Portsmouth — Graph

°F

Portsmouth temperature yesterday

Maximum temperature yesterday: 54 °F (at 5:50 AM)
Minimum temperature yesterday: 39 °F (at 10:20 PM)
Average temperature yesterday: 46 °F

Past Weeks' High & Low Weather Summary

 TemperatureHumidityPressure
High55 °F (Dec 18, 12:50 PM)100% (Dec 6, 6:20 AM)30.39 "Hg (Dec 6, 6:20 AM)
Low25 °F (Dec 13, 9:20 PM)54% (Dec 19, 12:20 PM)29.33 "Hg (Dec 12, 5:50 AM)
Average43 °F84%29.99 "Hg
* Reported Dec 5 5:50 AM — Dec 19 10:50 PM, Portsmouth, Weather by CustomWeather, © 2014

Note: Actual official high and low records may vary slightly from our data, if they occured in-between our weather recording intervals... More about our weather records

Advertising

Portsmouth weather history for previous 24 hours

 ConditionsComfort  
Time TempWeatherWind HumidityBarometerVisibility
10:50 PM
Dec 19
39 °FClear.2 mph87%30.24 "Hg10 mi
10:20 PM39 °FClear.3 mph87%30.24 "Hg10 mi
9:50 PM41 °FClear.2 mph81%30.24 "Hg10 mi
9:20 PM41 °FPassing clouds.9 mph81%30.24 "HgN/A
8:50 PM41 °FClear.8 mph87%30.21 "Hg10 mi
8:20 PM41 °FClear.8 mph87%30.21 "Hg10 mi
7:50 PM43 °FPassing clouds.6 mph76%30.21 "HgN/A
7:20 PM43 °FPassing clouds.7 mph76%30.21 "HgN/A
6:50 PM43 °FClear.5 mph76%30.21 "Hg10 mi
6:20 PM45 °FPassing clouds.6 mph71%30.18 "HgN/A
5:50 PM45 °FPassing clouds.9 mph76%30.18 "HgN/A
5:20 PM45 °FClear.10 mph76%30.15 "Hg10 mi
4:50 PM45 °FPassing clouds.9 mph71%30.15 "HgN/A
4:20 PM45 °FPassing clouds.9 mph71%30.12 "HgN/A
3:50 PM46 °FPassing clouds.9 mph66%30.12 "HgN/A
3:20 PM46 °FPassing clouds.10 mph66%30.09 "HgN/A
2:50 PM46 °FPassing clouds.13 mph62%30.09 "HgN/A
2:20 PM48 °FPassing clouds.13 mph58%30.09 "HgN/A
1:50 PM48 °FPassing clouds.13 mph58%30.07 "HgN/A
1:20 PM48 °FPassing clouds.13 mph58%30.07 "HgN/A
12:50 PM48 °FPassing clouds.15 mph58%30.07 "HgN/A
12:20 PM48 °FPassing clouds.17 mph54%30.07 "HgN/A
11:50 AM48 °FPassing clouds.13 mph58%30.04 "HgN/A
11:20 AM48 °FPassing clouds.13 mph58%30.04 "HgN/A
10:50 AM48 °FPassing clouds.10 mph58%30.04 "HgN/A
10:20 AM46 °FPassing clouds.12 mph66%30.01 "HgN/A
9:50 AM48 °FScattered clouds.16 mph66%29.98 "HgN/A
9:20 AM48 °FScattered clouds.12 mph82%29.98 "HgN/A
8:50 AM50 °FScattered clouds.8 mph82%29.95 "HgN/A
8:20 AM50 °FBroken clouds.8 mph88%29.92 "Hg5 mi
7:50 AM52 °FPartly cloudy.12 mph82%29.92 "Hg5 mi
7:20 AM52 °FPartly cloudy.8 mph94%29.89 "Hg5 mi
6:50 AM54 °FPartly cloudy.8 mph94%29.86 "Hg4 mi
6:20 AM54 °FPartly cloudy.10 mph94%29.83 "HgN/A
5:50 AM54 °FLight rain. Partly cloudy.13 mph94%29.83 "HgN/A
Weather by CustomWeather, © 2014

See weather overviewHow to use our weather pages